Location: ???????
(55.9142°N, 37.8256°E)
Time: 12:18:44
(UTC+00:00)

SAR-Lupe-4 - Pass Details

Date: 14 April 2024
Orbit: 476 x 482 km, 98.1° (Epoch: 02 April)

Event Time Altitude Azimuth Distance (km) Brightness Sun altitude
Rises 00:30:28 0° 14° (NNE) 2,548 8.2 -14.6°
Reaches altitude 10° 00:32:32 10° 12° (NNE) 1,664 7.1 -14.3°
Maximum altitude 00:36:06 71° 289° (WNW) 511 3.5 -14.0°
Enters shadow 00:38:08 24° 209° (SSW) 1,043 4.7 -13.8°
